Other Public Products
Issued by NWS Grand Forks, ND

Home | Current Version | Previous Version | Text Only | Print | Product List | Glossary On
Versions: 1 2 3 4 5 6 7 8 9 10 11 12 13 14 15 16 17 18 19 20 21 22 23 24 25 26 27 28 29 30 31 32 33 34 35 36 37 38 39 40 41 42 43 44 45 46 47 48 49 50
000
FPUS83 KFGF 270810
OPUFGF
PRAIRIE TO PINES WEATHER ROUNDUP
NATIONAL WEATHER SERVICE EASTERN NORTH DAKOTA/GRAND FORKS ND
300 AM CDT FRI MAY 27 2016

 **SATELLITE DATA USED TO AUGMENT SKY COVER AT AUTOMATED STATIONS**
 *****  WEATHER ACROSS EASTERN NORTH DAKOTA  *****

CITY           SKY/WX    TMP DP  RH WIND       PRES   REMARKS
GRAND FORKS    CLOUDY    54  52  93 NW3       29.80R
GRAND FORKS AF MOCLDY    52  52 100 SE3       29.80S
GRAND CITY NWS   N/A     55 N/A N/A MISG        N/A
BUXTON           N/A     58  57  97 CALM        N/A
DEVILS LAKE    CLEAR     52  51  97 SW6       29.82S
FARGO          CLOUDY    58  55  90 E9        29.79F
WAHPETON ARPT  CLOUDY    63  46  55 NE6       29.78F
$$

 *****  WEATHER ACROSS CENTRAL AND WESTERN NORTH DAKOTA  *****

CITY           SKY/WX    TMP DP  RH WIND       PRES   REMARKS
JAMESTOWN      PTCLDY    53  52  96 N5        29.80S
BISMARCK       CLEAR     47  47 100 CALM      29.83F
MINOT          CLOUDY    57  54  89 SW5       29.82S
MINOT AFB      CLOUDY    54  53  96 NW6       29.82R
GARRISON         N/A     52  50  93 NW7       29.84R
WILLISTON      CLEAR     50  48  93 N9        29.86S
DICKINSON      CLEAR     40  38  93 S6        29.84R
HETTINGER      CLEAR     33  32  96 NW3       29.86F
$$

 *****  OTHER OBSERVATIONS NORTHEAST NORTH DAKOTA  *****

CITY           SKY/WX    TMP DP  RH WIND       PRES   REMARKS
WALHALLA       FAIR      54  54 100 CALM      29.80S
LANGDON        CLOUDY    52  52 100 SW8       29.81S
CAVALIER       FAIR      54  54 100 SW3       29.80R
GRAFTON        PTSUNNY   55  55 100 W6        29.81R
CANDO          NOT AVBL
FORT TOTTEN      N/A     49  49 100 CALM      29.95S
ROLLA          CLOUDY    54  54 100 NW8       29.82S
RUGBY          PTSUNNY   55  55 100 NW5       29.82S
 ***** THE ABOVE OBSERVATIONS ARE NON NWS ARE NOT QUALITY
        CONTROLLED AND MAY MIS-REPORT RAIN FOR SNOW...
$$

 *****  OTHER OBSERVATIONS SOUTHEAST NORTH DAKOTA *****

CITY           SKY/WX    TMP DP  RH WIND       PRES   REMARKS
COOPERSTOWN    NOT AVBL
VALLEY CITY    FAIR      55  55 100 CALM      29.81F
OAKES            N/A    N/A N/A N/A MISG        N/A
GWINNER        FAIR      57  54  88 NW3       29.77F
SHEYENNE NWR     N/A     59  53  81 NW6       29.95S
BUFFALO          N/A     57  53  87 E7          N/A
WYNDMERE         N/A     59  52  77 N6          N/A
 ***** THE ABOVE OBSERVATIONS ARE NON NWS ARE NOT QUALITY
       CONTROLLED AND MAY MIS-REPORT RAIN FOR SNOW...
$$

  *****  WEATHER ACROSS NORTHERN MINNESOTA  *****

CITY           SKY/WX    TMP DP  RH WIND       PRES   REMARKS
FLAG ISLAND    CLEAR     55  54  94 SW9       29.77R
WARROAD        CLEAR     52  48  87 SW5       29.80R
ROSEAU         CLEAR     54  48  82 SW7       29.81R
HALLOCK        CLEAR     52  52 100 W5        29.79R FOG
THF RVR FALLS  MOCLDY    57  52  82 SW3       29.83R
HALSTAD        NOT AVBL
FOSSTON        CLOUDY    55  54  94 CALM      29.83F
BAUDETTE       CLEAR     51  50  96 S5        29.80S
WASKISH        MOCLDY    54  52  94 S3        29.81S
CROOKSTON      CLOUDY    57  55  94 S5        29.82S
$$
  *****  WEATHER ACROSS CENTRAL AND WEST MINNESOTA  *****

CITY           SKY/WX    TMP DP  RH WIND       PRES   REMARKS
BEMIDJI        CLOUDY    56  52  86 W7G21     29.83R
PARK RAPIDS    PTCLDY    58  50  75 CALM      29.81S
WADENA         CLEAR     54  50  87 CALM      29.81F
DETROIT LAKES  CLOUDY    59  54  82 NW8       29.83S
MOORHEAD       CLOUDY    57  54  88 NE6       29.80F
FERGUS FALLS   CLEAR     61  52  72 E5        29.76F
ELBOW LAKE     FAIR      60  53  77 CALM      29.81S
MORRIS MN      CLEAR     57  48  72 NE7       29.79F
STAPLES        CLOUDY    52  48  87 CALM      29.81F
WHEATON        CLEAR     57  54  88 E7        29.79F
$$
  *****  WEATHER ELSEWHERE ACROSS MINNESOTA  *****

CITY           SKY/WX    TMP DP  RH WIND       PRES   REMARKS
DULUTH         CLOUDY    51  48  89 CALM      29.85F
INTRNTL FALLS  CLEAR     49  47  93 CALM      29.81R
ELY            CLOUDY    52  48  87 SE5       29.85S
CLOQUET        CLOUDY    46  45  93 CALM      29.85F
BRAINERD       CLOUDY    56  51  84 CALM      29.82F
HIBBING        CLOUDY    46  45  96 CALM      29.84S
ALEXANDRIA     PTCLDY    60  49  66 SE3       29.81F
SAINT CLOUD    CLOUDY    63  54  72 E3        29.81F
MINNEAPOLIS    CLOUDY    69  55  60 SE5       29.83F
$$

  *****  WEATHER ACROSS SOUTH DAKOTA  *****

CITY           SKY/WX    TMP DP  RH WIND       PRES   REMARKS
SIOUX FALLS    CLOUDY    58  54  86 S5        29.80F
BROOKINGS      MOCLDY    60  55  83 S8        29.79S
WATERTOWN      CLOUDY    58  51  78 N3        29.78F
HURON          CLOUDY    57  54  89 N6        29.76S
SISSETON         N/A     55  53  93 S6        29.76F
ABERDEEN       CLOUDY    60  53  77 W8        29.76F
MITCHELL       CLOUDY    62  58  86 SE9       29.78S
PIERRE         CLOUDY    57  51  80 SW5       29.80R
MOBRIDGE       CLEAR     53  47  79 NW3       29.79S
RAPID CITY     PTCLDY    50  42  74 N12       29.87S
$$

  *****  SOME WEATHER IN NEARBY STATES *****

CITY           SKY/WX    TMP DP  RH WIND       PRES   REMARKS
GLASGOW MT     MOCLDY    50  47  89 N8        29.86F
GREAT FALLS MT PTCLDY    46  42  86 S6        29.90S
CHEYENNE WY    CLOUDY    49  37  63 N14       29.90S
SCOTTSBLUFF NE CLOUDY    50  43  77 N7        29.84F
OMAHA NE       CLOUDY    64  59  83 S14       29.80S
DES MOINES IA  CLOUDY    64  59  83 SE8       29.79R
DAVENPORT IA   HVY RAIN  65  59  81 SW16      29.92R
CHICAGO IL     CLOUDY    70  67  90 S10       29.89S
EAU CLAIRE WI  CLOUDY    58  56  93 CALM      29.86F
LA CROSSE WI   CLOUDY    66  61  84 CALM      29.84F
$$

  *****  SOME NATIONAL WEATHER *****

CITY           SKY/WX    TMP DP  RH WIND       PRES   REMARKS
LA GUARDIA NY  PTCLDY    68  63  84 E6        30.05S
RALEIGH NC     MOCLDY    69  59  70 SW7       30.15R
ATLANTA GA     MOCLDY    72  62  71 S7        30.08S
NEW ORLEANS LA CLOUDY    78  72  81 SE9       29.96F
OKLAHOMA CITY  CLOUDY    66  58  75 CALM      29.66F
ALBUQUERQUE NM PTCLDY    53  25  33 W7        29.94F
SALT LAKE CITY PTCLDY    56  40  55 SE8       29.96S
LOS ANGELES CA MOCLDY    59  55  87 W3        29.98S
BOISE ID       PTCLDY    53  40  61 CALM      29.91R
SEATTLE WA     MOCLDY    51  42  71 SW12      30.15F
$$

*** WEATHER ACROSS MANITOBA...SASKATCHEWAN AND ONTARIO ***
                ***ONTARIO***

CITY           SKY/WX    TMP DP  RH WIND       PRES   REMARKS
GERALDTON      CLOUDY    52  52 100 SW3       29.85R FOG
THUNDER BAY    FOG       50  50 100 NE3       29.86R VSB 3/8
SIOUX LOOKOUT  MOCLDY    54  54 100 S3        29.79R
TORONTO        MOCLDY    63  59  88 SE5       29.93S
BIG TROUT LK   CLOUDY    55  52  88 N5        29.81R
PICKLE LAKE    NOT AVBL
DRYDEN         PTCLDY    55  54  94 S7        29.78R
KENORA         PTCLDY    55  52  88 SW7       29.77S
$$
                *** MANITOBA***

CITY           SKY/WX    TMP DP  RH WIND       PRES   REMARKS
BRANDON        LGT RAIN  55  54  94 NW7       29.80S
DAUPHIN        CLEAR     52  50  93 W5        29.82R
ISLAND LAKE    CLOUDY    41  39  93 N13G23    29.94R
PILOT MOUND      N/A     54  54 100 W2          N/A
THE PAS        PTCLDY    46  39  76 NE9G18    29.98R
THOMPSON       NOT AVBL
WINNIPEG       CLOUDY    57  57 100 VRB2      29.77R
LYNN LAKE      CLOUDY    36  32  87 E14G20    30.12S
CHURCHILL      FLURRIES  30  28  93 NE13      30.25R WCI  20
GILLAM         DRIZZLE   32  30  93 NE16G26   30.10R WCI  21
$$
                ***SASKATCHEWAN***

CITY           SKY/WX    TMP DP  RH WIND       PRES   REMARKS
ESTEVAN        MOCLDY    52  50  93 W12       29.84F
KINDERSLEY     PTCLDY    54  45  71 S12       29.86S
LLOYDMINSTER   CLEAR     54  46  76 SW10      29.83R
PRINCE ALBERT  MOCLDY    55  50  82 E9        29.89S
REGINA         MOCLDY    52  50  93 NW7       29.88S
YORKTON        MOCLDY    52  48  87 N6        29.85R   C1F1C2F2C3F3C4F4C5F5C6F6C7F7C8F8C9F9CaFaCbFbCcFcCdFdCe!



USA.gov is the U.S. government's official web portal to all federal, state and local government web resources and services.